Flag for Germany Weather past 2 weeks in Oldenburg, Lower Saxony, Germany

63 °F

Broken clouds.

Feels Like: 63 °F
Forecast: 55 / 61 °F
Wind: 7 mph from Southeast

Location: Bremen Airport

Current Time: Oct 7, 2015 at 12:55:07 PM

Latest Report: Oct 7, 2015 at 12:20 PM

Visibility: 4 mi

Pressure: 29.83 "Hg

Humidity: 88%

Dew point: 59 °F

Location of OldenburgLocation

Historic Weather in Oldenburg — Graph


Oldenburg temperature yesterday

Maximum temperature yesterday: 61 °F (at 5:20 PM)
Minimum temperature yesterday: 54 °F (at 6:20 AM)
Average temperature yesterday: 57 °F

Past Weeks' High & Low Weather Summary

High64 °F (Oct 3, 2:20 PM)100% (Sep 22, 8:20 PM)30.72 "Hg (Sep 22, 8:20 PM)
Low37 °F (Oct 2, 2:50 AM)48% (Oct 1, 1:20 PM)29.53 "Hg (Sep 22, 3:20 PM)
Average53 °F85%30.18 "Hg
* Reported Sep 22 11:20 AM — Oct 7 11:50 AM, Oldenburg, Weather by CustomWeather, © 2015

Note: Actual official high and low records may vary slightly from our data, if they occured in-between our weather recording intervals... More about our weather records


Oldenburg weather history for previous 24 hours

Time TempWeatherWind HumidityBarometerVisibility
11:50 AM
Wed, Oct 7
63 °FFog.7 mph88%29.80 "Hg3 mi
11:20 AM61 °FFog.7 mph94%29.80 "Hg3 mi
10:50 AM61 °FFog.7 mph94%29.80 "Hg2 mi
10:20 AM59 °FFog.7 mph100%29.80 "Hg2 mi
9:50 AM59 °FFog.8 mph100%29.80 "Hg1 mi
9:20 AM59 °FFog.8 mph100%29.77 "Hg1 mi
8:50 AM59 °FFog.7 mph94%29.77 "Hg1 mi
8:20 AM59 °FFog.8 mph94%29.77 "Hg1 mi
7:50 AM59 °FFog.9 mph94%29.74 "Hg1 mi
7:20 AM59 °FFog.9 mph94%29.74 "Hg1 mi
6:50 AM59 °FFog.9 mph94%29.74 "Hg2 mi
6:20 AM59 °FFog.9 mph94%29.74 "Hg2 mi
5:50 AM59 °FFog.10 mph94%29.74 "Hg2 mi
5:20 AM59 °FFog.10 mph94%29.74 "Hg2 mi
4:50 AM59 °FFog.10 mph94%29.71 "Hg3 mi
4:20 AM59 °FPassing clouds.10 mph94%29.71 "Hg4 mi
3:50 AM59 °FPassing clouds.9 mph100%29.71 "Hg4 mi
3:20 AM59 °FPassing clouds.9 mph100%29.71 "Hg4 mi
2:50 AM59 °FFog.9 mph94%29.71 "Hg2 mi
2:20 AM59 °FFog.9 mph94%29.71 "Hg3 mi
1:50 AM59 °FLight rain. Fog.9 mph94%29.71 "Hg2 mi
1:20 AM59 °FFog.7 mph94%29.71 "Hg2 mi
12:50 AM59 °FLight rain. Fog.8 mph94%29.71 "Hg2 mi
11:50 PM
Tue, Oct 6
59 °FLight rain. Mostly cloudy.8 mph94%29.71 "Hg4 mi
11:20 PM59 °FLight rain. Passing clouds.10 mph94%29.71 "Hg5 mi
10:50 PM59 °FClear.9 mph94%29.71 "Hg10 mi
10:20 PM59 °FClear.12 mph94%29.71 "Hg10 mi
9:50 PM59 °FClear.10 mph94%29.71 "Hg10 mi
9:20 PM59 °FClear.10 mph94%29.71 "Hg10 mi
8:50 PM61 °FClear.9 mph88%29.71 "Hg10 mi
8:20 PM61 °FPassing clouds.9 mph88%29.68 "HgN/A
7:50 PM61 °FPassing clouds.9 mph88%29.68 "HgN/A
7:20 PM61 °FPartly sunny.9 mph88%29.68 "HgN/A
6:50 PM61 °FBroken clouds.8 mph94%29.68 "HgN/A
6:20 PM61 °FPartly sunny.8 mph94%29.65 "HgN/A
5:50 PM61 °FPartly sunny.7 mph88%29.65 "HgN/A
5:20 PM61 °FPartly sunny.9 mph88%29.65 "Hg5 mi
4:50 PM59 °FPartly sunny.9 mph94%29.65 "Hg6 mi
4:20 PM59 °FBroken clouds.10 mph94%29.65 "Hg5 mi
3:50 PM59 °FBroken clouds.8 mph94%29.65 "Hg5 mi
3:20 PM59 °FBroken clouds.12 mph94%29.65 "Hg4 mi
2:50 PM57 °FPartly sunny.10 mph100%29.65 "Hg4 mi
2:20 PM57 °FDrizzle. Partly sunny.13 mph94%29.65 "Hg3 mi
1:50 PM57 °FDrizzle. Partly sunny.13 mph94%29.65 "Hg1 mi
1:20 PM57 °FDrizzle. Partly sunny.12 mph94%29.65 "Hg2 mi
12:50 PM55 °FDrizzle. Partly sunny.14 mph100%29.65 "Hg1 mi
12:20 PM55 °FDrizzle. Partly sunny.16 mph94%29.65 "Hg3 mi
Weather by CustomWeather, © 2015

See weather overviewHow to use our weather pages